ジャコビニ-ツィナー彗星

21P/Giacobini-Zinner (2018)

English version
Home page
Updated on July 17, 2018

---------------------------------------------------------------------

・ プロフィール

・ 写真集

・ 軌道要素

Epoch 2018 Aug. 30.0 TT = JDT 2458360.5
T 2018 Sept. 10.27862 TT                                MPCW
q   1.0127805            (2000.0)            P               Q
n   0.15064517     Peri.  172.86309     +0.98462516     -0.10358478
a   3.4981029      Node   195.39319     +0.12226163     +0.98376408
e   0.7104772      Incl.   31.99776     +0.12476136     -0.14655518
P   6.54
From 827 observations 2004 June 21-2018 Apr. 25, mean residual 0".8.
     Nongravitational parameters A1 = +0.18, A2 = -0.1254.

・ 星図

・ 光度変化

        m1 = 8.7 + 5 logΔ + 18.5 log r  [ ,0]  (              〜2018年 9月10日)
        m1 = 8.8 + 5 logΔ + 15.0 log r  [0, ]  (2018年 9月10日〜              )

---------------------------------------------------------------------

軌道要素はM.P.E.C. 2018-H105に掲載されたものです。
星図はステラナビゲータ Ver.8 (アストロアーツ) で作成したものです。
光度グラフはComet for Windowsで作成したものです。

---------------------------------------------------------------------

Copyright(C) Seiichi Yoshida (comet@aerith.net). All rights reserved.